This is the latest recevied weather packets stored in our database for station/object KC8ZBC. If no packets are shown the sender has not sent any weather packets the latest 10 day(s).
| Time | Temp. | Humidity | Pressure | Rain* | Wind** | Luminosity | Snow |
|---|---|---|---|---|---|---|---|
| 1777912263 | 22.22° C | 35% | 978.3 hPa | 0 mm | - | 696 W/m² | - |
| 1777911959 | 22.22° C | 35% | 978.2 hPa | 0 mm | - | 705 W/m² | - |
| 1777911655 | 22.22° C | 36% | 978.2 hPa | 0 mm | - | 701 W/m² | - |
| 1777911351 | 22.22° C | 37% | 978.1 hPa | 0 mm | - | 714 W/m² | - |
| 1777911049 | 22.22° C | 38% | 978.4 hPa | 0 mm | - | 695 W/m² | - |
| 1777910746 | 22.22° C | 37% | 978.4 hPa | 0 mm | - | 703 W/m² | - |
| 1777910443 | 22.22° C | 40% | 978.5 hPa | 0 mm | - | 714 W/m² | - |
| 1777910139 | 22.22° C | 42% | 978.5 hPa | 0 mm | - | 733 W/m² | - |
| 1777909837 | 21.11° C | 45% | 978.8 hPa | 0 mm | - | 713 W/m² | - |
| 1777909533 | 21.11° C | 46% | 978.6 hPa | 0 mm | - | 725 W/m² | - |
| 1777909231 | 21.11° C | 46% | 978.8 hPa | 0 mm | - | 728 W/m² | - |
| 1777908929 | 20.56° C | 49% | 978.8 hPa | 0 mm | - | 751 W/m² | - |
| 1777908627 | 20.56° C | 49% | 978.9 hPa | 0 mm | - | 754 W/m² | - |
| 1777908323 | 20.56° C | 48% | 978.9 hPa | 0 mm | - | 749 W/m² | - |
| 1777908020 | 20° C | 51% | 978.9 hPa | 0 mm | - | 749 W/m² | - |
| 1777907715 | 20.56° C | 50% | 979 hPa | 0 mm | - | 676 W/m² | - |
| 1777907410 | 20° C | 51% | 978.8 hPa | 0 mm | - | 744 W/m² | - |
| 1777907108 | 19.44° C | 52% | 979.2 hPa | 0 mm | - | 724 W/m² | - |
| 1777906805 | 18.33° C | 55% | 979.1 hPa | 0 mm | - | 711 W/m² | - |
| 1777906502 | 18.89° C | 54% | 979 hPa | 0 mm | - | 711 W/m² | - |
| 1777906198 | 18.89° C | 55% | 979.2 hPa | 0 mm | - | 699 W/m² | - |
| 1777905895 | 18.33° C | 55% | 979.1 hPa | 0 mm | - | 685 W/m² | - |
| 1777905591 | 18.89° C | 53% | 979.2 hPa | 0 mm | - | 647 W/m² | - |
| 1777905288 | 17.78° C | 57% | 979.2 hPa | 0 mm | - | 676 W/m² | - |
| 1777904985 | 18.33° C | 55% | 979.1 hPa | 0 mm | - | 672 W/m² | - |
* Rain latest hour (hover to see other rain measurements)
** Current wind speed in m/s (hover to see current wind gust speed)